STARLINK-32114, 60287

Orbit data source: Space-Track

STARLINK-32114, 60287 is a payload satellite owned by SpaceX/Seattle (US) in LEO that was launched on Sun, 28 Jul 2024 UTC via an FALCON 9 launch vehicle from the Air Force Eastern Test Range (AFETR). Payload-class satellites include a variety of spacecraft equipped with specific instruments for various scientific and technological missions. These include communications satellites like Starlink; space stations such as the ISS; scientific satellites like the Hubble; Earth observation satellites from companies like Planet Labs, Umbra, and HawkEye 360; GPS; miniature CubeSats for education and research; and military/defense satellites.

Loading next visibility...
Identifier
60287, 2024-132K
Orbit
LEO
Last TLE update
16 hours ago
Origin
Manufacturer
SpaceX/Seattle
Mission
Operational spacecraft
Bus & Motor
STARLINK V2M, Unknown motor
Mass
730 kg wet, ~700 kg dry
Launch date (UTC)
2024-07-28 (11 months ago)
Launch vehicle
FALCON 9
Launch site
Air Force Eastern Test Range (AFETR)
Object type
Payload
Rocket body
Debris
Shape & HBR
Unknown
Radar Cross Section
Large (>1 m²)

Expand to show TLE details & history

TLE from 16 hours ago
0 STARLINK-32114
1 60287U 24132K   25183.58415167  .00000890  00000-0  42209-4 0  9999
2 60287  53.1605 134.4622 0001438 113.3860 246.7292 15.30184132 53261
Epoch: 2025-07-02T14:01Z
TLE epoch observation values (Epoch: 2025-07-02T14:01:10.704Z)
Latitude
-0.00002°
Longitude
3.30443°
Altitude
476.552 km
Speed
7.628 km/s
True Right ascension
08h 57m 50s
True Declination
0° 00' 00"
Sunlit
Object was in daylight at epoch
Visualization orbit readout
Latitude
53.11715°
Longitude
83.36906°
Altitude
480.931 km
Speed
7.632 km/s
Apparent Right ascension
09h 24m 48s
Apparent Declination
18° 50' 41"
Sunlit
Object is in daylight
Visualization observer readout
Local Sidereal Time
17:49:44
Azimuth
308.475° NW
Elevation
-12.813°
Doppler factor
1
Orbital elements
Apogee altitude
476.504 km
Perigee altitude
474.533 km
Semi-major axis
6,853.656 km
Eccentricity
0.00014
Inclination
53.1605°
RAAN
134.4622°
Arg. of periapsis
113.386°
True anomaly
Unknown
Mean anomaly
246.7292°
Eccentric anomaly
Unknown
Mean motion
3.82525 °/min
Orbital period
94.11 mins
BSTAR
0.000042209
Loading maneuver chart data...
Loading SW <> Apogee altitude chart data...
Loading historical data...
Loading historical data...
Loading historical data...
Loading historical data...
Loading historical data...
Loading historical data...
Loading historical data...

STARLINK-32114 Visibility forecast

Observer location: undefined°, undefined°

Span
Click to sort rows by Start time (UTC) header in descending order
Start Az.
Max El. time (UTC)
Max El. Az.
Max El.
End time (UTC)
End Az.
6 mins2025-07-03 06:11:07.722Z313.947° NW2025-07-03 06:14:07.722Z359.627° N42.857°2025-07-03 06:17:07.722Z122.304° SE
5 mins2025-07-03 23:08:07.722Z218.357° SW2025-07-03 23:10:07.722Z94.744° ESE43.174°2025-07-03 23:13:07.722Z53.532° ENE
5 mins2025-07-04 05:43:07.722Z324.69° NNW2025-07-04 05:45:07.722Z58.715° ENE41.014°2025-07-04 05:48:07.722Z118.223° SE
|